• In Hungary
  • List of Countries
  • For 7 days
  • Water Temperature
  • Satellite Maps
  • Weather Map
  • News
  • Weather Widgets
  • user-avatar
    Login

    Hourly Weather Bukowka

    Today, 22 November, Wednesday

    Time Temperature Precipitation Wind Pressure Humidity
    00:00 -1°C° 0 mm 3 mps 752 mmHg 94%
    01:00 -1°C° 0 mm 3 mps 751 mmHg 94%
    02:00 -2°C° 0 mm 4 mps 751 mmHg 93%
    03:00 -2°C° 0 mm 4 mps 751 mmHg 93%
    04:00 -2°C° 0 mm 5 mps 750 mmHg 93%
    05:00 -2°C° 0.3 mm 6 mps 750 mmHg 91%
    06:00 -2°C° 0.3 mm 6 mps 749 mmHg 88%
    07:00 -1°C° 0.3 mm 7 mps 749 mmHg 86%
    08:00 -1°C° 1.3 mm 7 mps 749 mmHg 87%
    09:00 -1°C° 1.3 mm 8 mps 748 mmHg 88%
    10:00 -1°C° 1.3 mm 8 mps 748 mmHg 88%
    11:00 -1°C° 0.6 mm 8 mps 748 mmHg 89%
    12:00 0°C° 0.6 mm 7 mps 748 mmHg 90%
    13:00 0°C° 0.6 mm 7 mps 747 mmHg 91%
    14:00 +1°C° 0.2 mm 6 mps 747 mmHg 93%
    15:00 +1°C° 0.2 mm 6 mps 747 mmHg 94%
    16:00 +2°C° 0.2 mm 5 mps 747 mmHg 96%
    17:00 +2°C° 0.2 mm 5 mps 748 mmHg 96%
    18:00 +3°C° 0.2 mm 5 mps 748 mmHg 96%
    19:00 +3°C° 0.2 mm 5 mps 748 mmHg 97%
    20:00 +5°C° 0.2 mm 5 mps 748 mmHg 97%
    21:00 +5°C° 0.2 mm 5 mps 748 mmHg 97%
    22:00 +5°C° 0.2 mm 5 mps 748 mmHg 97%
    23:00 +5°C° 0 mm 5 mps 748 mmHg 96%

    Tomorrow, 23 November, Thursday

    Time Temperature Precipitation Wind Pressure Humidity
    00:00 +4°C° 0 mm 6 mps 748 mmHg 96%
    01:00 +4°C° 0 mm 6 mps 748 mmHg 95%
    02:00 +4°C° 0 mm 6 mps 748 mmHg 94%
    03:00 +3°C° 0 mm 6 mps 748 mmHg 93%
    04:00 +3°C° 0 mm 6 mps 748 mmHg 92%
    05:00 +3°C° 0 mm 6 mps 748 mmHg 89%
    06:00 +3°C° 0 mm 7 mps 748 mmHg 87%
    07:00 +3°C° 0 mm 7 mps 748 mmHg 84%
    08:00 +4°C° 0 mm 7 mps 748 mmHg 80%
    09:00 +4°C° 0 mm 7 mps 748 mmHg 75%
    10:00 +5°C° 0 mm 8 mps 748 mmHg 70%
    11:00 +6°C° 0 mm 8 mps 748 mmHg 68%
    12:00 +6°C° 0 mm 8 mps 748 mmHg 66%
    13:00 +7°C° 0 mm 8 mps 748 mmHg 64%
    14:00 +6°C° 0 mm 7 mps 748 mmHg 67%
    15:00 +6°C° 0 mm 7 mps 748 mmHg 69%
    16:00 +5°C° 0 mm 7 mps 748 mmHg 72%
    17:00 +6°C° 0 mm 7 mps 748 mmHg 74%
    18:00 +6°C° 0 mm 7 mps 748 mmHg 75%
    19:00 +6°C° 0 mm 7 mps 749 mmHg 76%
    20:00 +6°C° 0 mm 7 mps 749 mmHg 78%
    21:00 +6°C° 0 mm 7 mps 749 mmHg 80%
    22:00 +6°C° 0 mm 7 mps 749 mmHg 82%
    23:00 +6°C° 0 mm 7 mps 750 mmHg 83%

    Day after tomorrow, 24 November, Friday

    Time Temperature Precipitation Wind Pressure Humidity
    00:00 +6°C° 0 mm 7 mps 750 mmHg 85%
    01:00 +6°C° 0 mm 7 mps 750 mmHg 87%
    02:00 +7°C° 0 mm 6 mps 751 mmHg 88%
    03:00 +7°C° 0 mm 6 mps 751 mmHg 90%
    04:00 +7°C° 0 mm 5 mps 751 mmHg 92%
    05:00 +7°C° 0 mm 5 mps 751 mmHg 92%
    06:00 +6°C° 0 mm 5 mps 751 mmHg 93%
    07:00 +6°C° 0 mm 5 mps 752 mmHg 94%
    08:00 +7°C° 0 mm 6 mps 751 mmHg 91%
    09:00 +8°C° 0 mm 7 mps 751 mmHg 88%
    10:00 +9°C° 0 mm 8 mps 751 mmHg 85%
    11:00 +9°C° 0 mm 8 mps 751 mmHg 82%
    12:00 +10°C° 0 mm 8 mps 750 mmHg 79%
    13:00 +10°C° 0 mm 8 mps 750 mmHg 77%
    14:00 +10°C° 0.1 mm 7 mps 750 mmHg 80%
    15:00 +9°C° 0.1 mm 7 mps 751 mmHg 82%
    16:00 +9°C° 0.1 mm 6 mps 751 mmHg 85%
    17:00 +9°C° 0.5 mm 6 mps 751 mmHg 86%
    18:00 +9°C° 0.5 mm 5 mps 751 mmHg 86%
    19:00 +9°C° 0.5 mm 5 mps 751 mmHg 86%
    20:00 +8°C° 0.6 mm 4 mps 751 mmHg 87%
    21:00 +9°C° 0.6 mm 3 mps 752 mmHg 88%
    22:00 +9°C° 0.6 mm 3 mps 752 mmHg 90%
    23:00 +9°C° 0.3 mm 3 mps 752 mmHg 90%

    25 November, Saturday

    Time Temperature Precipitation Wind Pressure Humidity
    00:00 +9°C° 0.3 mm 3 mps 751 mmHg 91%
    01:00 +9°C° 0.3 mm 3 mps 751 mmHg 91%
    02:00 +7°C° 0.2 mm 4 mps 751 mmHg 90%
    03:00 +7°C° 0.2 mm 4 mps 750 mmHg 89%
    04:00 +7°C° 0.2 mm 5 mps 750 mmHg 88%
    05:00 +7°C° 0.1 mm 6 mps 749 mmHg 85%
    06:00 +7°C° 0.1 mm 6 mps 748 mmHg 83%
    07:00 +6°C° 0.1 mm 7 mps 747 mmHg 81%
    08:00 +8°C° 0.1 mm 7 mps 747 mmHg 78%
    09:00 +7°C° 0.1 mm 8 mps 746 mmHg 76%
    10:00 +9°C° 0.1 mm 8 mps 745 mmHg 73%
    11:00 +9°C° 0 mm 8 mps 745 mmHg 71%
    12:00 +9°C° 0 mm 8 mps 744 mmHg 70%
    13:00 +8°C° 0 mm 9 mps 744 mmHg 68%
    14:00 +8°C° 0.1 mm 9 mps 744 mmHg 71%
    15:00 +9°C° 0.1 mm 8 mps 744 mmHg 73%
    16:00 +9°C° 0.1 mm 8 mps 744 mmHg 76%
    17:00 +7°C° 0.2 mm 9 mps 744 mmHg 71%
    18:00 +6°C° 0.2 mm 9 mps 745 mmHg 66%
    19:00 +6°C° 0.2 mm 10 mps 745 mmHg 61%
    20:00 +5°C° 0 mm 10 mps 745 mmHg 61%
    21:00 +3°C° 0 mm 11 mps 746 mmHg 61%
    22:00 +3°C° 0 mm 11 mps 746 mmHg 61%
    23:00 +2°C° 0 mm 11 mps 747 mmHg 63%

    26 November, Sunday

    Time Temperature Precipitation Wind Pressure Humidity
    00:00 +2°C° 0 mm 11 mps 747 mmHg 64%
    01:00 +1°C° 0 mm 11 mps 747 mmHg 66%
    02:00 +1°C° 0 mm 11 mps 747 mmHg 66%
    03:00 -1°C° 0 mm 11 mps 748 mmHg 67%
    04:00 0°C° 0 mm 10 mps 748 mmHg 68%
    05:00 0°C° 0 mm 10 mps 748 mmHg 69%
    06:00 -2°C° 0 mm 10 mps 748 mmHg 70%
    07:00 -2°C° 0 mm 10 mps 748 mmHg 70%
    08:00 -2°C° 0 mm 10 mps 749 mmHg 70%
    09:00 0°C° 0 mm 10 mps 749 mmHg 69%
    10:00 -1°C° 0 mm 11 mps 749 mmHg 69%
    11:00 0°C° 0 mm 10 mps 749 mmHg 68%
    12:00 +1°C° 0 mm 10 mps 749 mmHg 67%
    13:00 +1°C° 0 mm 10 mps 749 mmHg 65%
    14:00 +1°C° 0 mm 10 mps 749 mmHg 66%
    15:00 0°C° 0 mm 9 mps 749 mmHg 67%
    16:00 0°C° 0 mm 9 mps 748 mmHg 68%
    17:00 0°C° 0 mm 9 mps 748 mmHg 71%
    18:00 +1°C° 0 mm 9 mps 748 mmHg 74%
    19:00 +1°C° 0 mm 9 mps 748 mmHg 77%
    20:00 +1°C° 0.3 mm 9 mps 748 mmHg 78%
    21:00 +2°C° 0.3 mm 9 mps 748 mmHg 79%
    22:00 +2°C° 0.3 mm 10 mps 748 mmHg 80%
    23:00 +2°C° 0.2 mm 10 mps 748 mmHg 79%

    27 November, Monday

    Time Temperature Precipitation Wind Pressure Humidity
    00:00 +2°C° 0.2 mm 10 mps 749 mmHg 78%
    01:00 +2°C° 0.2 mm 10 mps 749 mmHg 77%
    02:00 +1°C° 0.1 mm 10 mps 749 mmHg 77%
    03:00 +1°C° 0.1 mm 10 mps 749 mmHg 77%
    04:00 +1°C° 0.1 mm 10 mps 749 mmHg 77%
    05:00 0°C° 0.1 mm 10 mps 749 mmHg 77%
    06:00 0°C° 0.1 mm 10 mps 750 mmHg 78%
    07:00 0°C° 0.1 mm 10 mps 750 mmHg 78%
    08:00 0°C° 0.1 mm 10 mps 750 mmHg 78%
    09:00 0°C° 0.1 mm 10 mps 751 mmHg 78%
    10:00 +1°C° 0.1 mm 9 mps 751 mmHg 77%
    11:00 +1°C° 0.1 mm 10 mps 751 mmHg 76%
    12:00 +1°C° 0.1 mm 10 mps 751 mmHg 74%
    13:00 +2°C° 0.1 mm 10 mps 751 mmHg 72%
    14:00 +2°C° 0.2 mm 10 mps 752 mmHg 73%
    15:00 +1°C° 0.2 mm 10 mps 752 mmHg 74%
    16:00 +1°C° 0.2 mm 9 mps 752 mmHg 75%
    17:00 +1°C° 0.2 mm 9 mps 752 mmHg 76%
    18:00 +1°C° 0.2 mm 9 mps 753 mmHg 76%
    19:00 +1°C° 0.2 mm 9 mps 753 mmHg 77%
    20:00 0°C° 0.1 mm 8 mps 753 mmHg 78%
    21:00 0°C° 0.1 mm 8 mps 753 mmHg 79%
    22:00 0°C° 0.1 mm 8 mps 753 mmHg 80%
    23:00 -1°C° 0 mm 8 mps 753 mmHg 81%
    Show more